GLO1433 SBGR-SBCT

Flight info

Callsign GLO1433
Flight time N/A
Altitude 32000
Route SOVSI UZ85 RAXIT
Aircraft B738/M-SDE2E3FGHIRWXY/LB1

Departure

Time N/A
Airport São Paulo/Guarulhos–Governor André Franco Montoro International Airport (SBGR)

Arrival

Time 2026-04-29 06:15
Airport Curitiba-Afonso Pena International Airport (SBCT)
Time Latitude Longitude Altitude Speed Heading
2026-04-29 06:07 -25.22565 -48.96804 9802 ft 255 kts 268°
2026-04-29 06:07 -25.22833 -48.98756 9646 ft 261 kts 255°
2026-04-29 06:07 -25.23543 -49.00576 9524 ft 261 kts 248°
2026-04-29 06:08 -25.24327 -49.02394 9396 ft 262 kts 248°
2026-04-29 06:08 -25.25109 -49.04214 9253 ft 264 kts 248°
2026-04-29 06:08 -25.25892 -49.06042 9106 ft 264 kts 248°
2026-04-29 06:08 -25.26679 -49.07897 8968 ft 271 kts 248°
2026-04-29 06:09 -25.27483 -49.09822 8666 ft 278 kts 248°
2026-04-29 06:09 -25.28288 -49.11750 8500 ft 275 kts 248°
2026-04-29 06:09 -25.29087 -49.13659 8325 ft 272 kts 248°
2026-04-29 06:09 -25.29869 -49.15525 8159 ft 270 kts 248°
2026-04-29 06:10 -25.30655 -49.17417 8004 ft 271 kts 248°
2026-04-29 06:10 -25.31454 -49.19358 7854 ft 284 kts 248°
2026-04-29 06:10 -25.32288 -49.21370 7687 ft 291 kts 248°
2026-04-29 06:10 -25.33157 -49.23393 7513 ft 291 kts 243°
2026-04-29 06:11 -25.34453 -49.25110 7302 ft 291 kts 226°
2026-04-29 06:11 -25.35932 -49.26636 7041 ft 287 kts 225°
2026-04-29 06:11 -25.37344 -49.28093 6980 ft 275 kts 225°
2026-04-29 06:11 -25.38695 -49.29499 6924 ft 259 kts 222°
2026-04-29 06:12 -25.40287 -49.30421 6238 ft 269 kts 191°
2026-04-29 06:12 -25.42114 -49.30160 5846 ft 263 kts 153°
2026-04-29 06:12 -25.43413 -49.28864 5512 ft 247 kts 116°
2026-04-29 06:12 -25.44194 -49.27216 5199 ft 239 kts 128°
2026-04-29 06:13 -25.45409 -49.26008 4904 ft 231 kts 134°
2026-04-29 06:13 -25.46439 -49.24735 4603 ft 213 kts 131°
2026-04-29 06:13 -25.47429 -49.23640 4328 ft 190 kts 134°
2026-04-29 06:13 -25.48323 -49.22649 4083 ft 173 kts 134°
2026-04-29 06:14 -25.49131 -49.21748 3889 ft 157 kts 134°
2026-04-29 06:14 -25.49870 -49.20914 3655 ft 149 kts 134°
2026-04-29 06:14 -25.50599 -49.20097 3455 ft 149 kts 134°
2026-04-29 06:14 -25.51321 -49.19289 3258 ft 150 kts 135°
2026-04-29 06:15 -25.52055 -49.18463 3059 ft 148 kts 134°
2026-04-29 06:15 -25.52747 -49.17686 2982 ft 122 kts 135°
2026-04-29 06:15 -25.53188 -49.17194 2984 ft 63 kts 135°
2026-04-29 06:15 -25.53475 -49.16874 2981 ft 49 kts 135°
2026-04-29 06:16 -25.53593 -49.16770 2980 ft 10 kts 189°
2026-04-29 06:16 -25.53611 -49.16855 2980 ft 20 kts 271°
2026-04-29 06:16 -25.53642 -49.17025 2980 ft 23 kts 236°
2026-04-29 06:16 -25.53691 -49.17085 2980 ft 0 kts 225°